Weather History for Sedalia, MO

Change the Weather History Date:

Thursday, January 3, 2013

  Actual Average Record
Temperature  
Mean Temperature 29 °F 32 °F  
Max Temperature 37 °F 40 °F 71 °F (2009)
Min Temperature 21 °F 23 °F -8 °F (1979)
Degree Days  
Heating Degree Days 36 34  
Month to date heating degree days 127 100  
Since 1 July heating degree days 1791 1881  
Cooling Degree Days 0 0  
Month to date cooling degree days 0 0  
Year to date cooling degree days 0 0  
Moisture  
Dew Point 23 °F    
Average Humidity 76    
Maximum Humidity 92    
Minimum Humidity 59    
Precipitation  
Precipitation 0.00 in 0.05 in 1.60 in (1971)
Month to date precipitation 0.00 0.15  
Year to date precipitation 0.00 0.15  
Sea Level Pressure  
Sea Level Pressure 30.39 in    
Wind  
Wind Speed 6 mph (West)    
Max Wind Speed 10 mph    
Max Gust Speed 13 mph    
Visibility 8 miles    
Events      
T = Trace of Precipitation, MM = Missing Value Source: NWS Daily Summary

Daily Weather History Graph

Daily Weather History Graph

Search for Another Location

Airport:

Trip Planner

Search our weather history database for the weather conditions in past years. The results will help you decide how hot, cold, wet, or windy it might be!

Date:

Astronomy

Jan. 03, 2013 Rise Set
Actual Time 7:31 AM CST 5:03 PM CST
Civil Twilight 7:01 AM CST 5:33 PM CST
Nautical Twilight 6:28 AM CST 6:06 PM CST
Astronomical Twilight 5:55 AM CST 6:39 PM CST
Moon 11:35 PM CST (1/3) 10:47 AM CST (1/3)
Length of Visible Light 10h 32m
Length of Day
9h 32m
Waning Gibbous, 65% of the Moon is Illuminated
Jan 3
Waning Gibbous
Jan 4
Last Quarter
Jan 11
New
Jan 18
First Quarter
Jan 26
Full

Hourly Weather History & Observations

Time (CST) Temp. Windchill Dew Point Humidity Pressure Visibility Wind Dir Wind Speed Gust Speed Precip Events Conditions
12:53 AM 24.1 °F 16.0 °F 19.0 °F 81% 30.27 in 8.0 mi West 6.9 mph - N/A   Clear
1:53 AM 27.0 °F 19.5 °F 21.0 °F 78% 30.29 in 9.0 mi West 6.9 mph - N/A   Overcast
2:53 AM 27.0 °F 18.7 °F 21.0 °F 78% 30.30 in 9.0 mi West 8.1 mph - N/A   Overcast
3:53 AM 24.1 °F 16.0 °F 19.9 °F 84% 30.30 in 8.0 mi NW 6.9 mph - N/A   Clear
4:53 AM 23.0 °F 14.7 °F 19.0 °F 85% 30.32 in 7.0 mi West 6.9 mph - N/A   Clear
6:53 AM 24.1 °F 16.0 °F 19.9 °F 84% 30.35 in 5.0 mi WSW 6.9 mph - N/A   Clear
7:53 AM 21.9 °F 11.7 °F 19.9 °F 92% 30.37 in 3.0 mi SW 9.2 mph - N/A   Clear
8:53 AM 24.1 °F 17.0 °F 19.9 °F 84% 30.40 in 5.0 mi SW 5.8 mph - N/A   Clear
9:53 AM 28.0 °F 24.2 °F 23.0 °F 81% 30.42 in 5.0 mi WSW 3.5 mph - N/A   Haze
10:53 AM 32.0 °F 27.5 °F 25.0 °F 75% 30.43 in 8.0 mi West 4.6 mph - N/A   Overcast
11:53 AM 34.0 °F 29.8 °F 26.1 °F 73% 30.41 in 8.0 mi West 4.6 mph - N/A   Clear
12:53 PM 36.0 °F 30.3 °F 27.0 °F 70% 30.39 in 10.0 mi WNW 6.9 mph - N/A   Clear
1:53 PM 37.0 °F 31.6 °F 27.0 °F 67% 30.38 in 10.0 mi WSW 6.9 mph - N/A   Overcast
2:53 PM 37.0 °F 32.4 °F 28.0 °F 70% 30.38 in 10.0 mi WSW 5.8 mph - N/A   Overcast
3:53 PM 37.0 °F 31.0 °F 25.0 °F 62% 30.39 in 10.0 mi West 8.1 mph - N/A   Overcast
4:53 PM 35.1 °F 27.9 °F 26.1 °F 70% 30.40 in 10.0 mi NW 9.2 mph - N/A   Overcast
5:53 PM 33.1 °F 27.7 °F 26.1 °F 75% 30.42 in 10.0 mi NW 5.8 mph - N/A   Overcast
6:53 PM 33.1 °F 27.7 °F 24.1 °F 70% 30.44 in 10.0 mi NW 5.8 mph - N/A   Overcast
7:53 PM 30.9 °F 25.2 °F 23.0 °F 72% 30.45 in 10.0 mi NW 5.8 mph - N/A   Overcast
8:53 PM 28.0 °F 24.2 °F 21.0 °F 75% 30.44 in 10.0 mi North 3.5 mph - N/A   Clear
9:53 PM 27.0 °F - 21.0 °F 78% 30.44 in 10.0 mi Calm Calm - N/A   Clear
10:53 PM 27.0 °F - 19.9 °F 75% 30.43 in 10.0 mi Calm Calm - N/A   Clear
11:53 PM 24.1 °F 18.2 °F 19.0 °F 81% 30.44 in 10.0 mi SW 4.6 mph - N/A   Clear